#timestamp,LO_Frequency,Hit,StdDev 
1675609215.8,286047005.5,N
1675609235.7,286047003.8,N
1675609255.5,286047002.9,N
1675609275.3,286047002.9,N
1675609295.2,286047004.8,N
1675609315.9,286047004.6,N
1675609335.7,286047002.7,N
1675609355.6,286047004.4,N
1675609375.4,286047005.2,Y
1675609395.2,286047000.7,P
1675609415.1,286047000.7,N
1675609416.0,286047000.7,N
1675609435.8,286047000.9,N
1675609455.6,286046999.8,N
1675609475.5,286046999.9,N
1675609495.3,286046996.6,N
1675609515.1,286046999.7,N
1675609535.9,286047000.1,N
1675609555.7,286047000.8,N
1675609575.5,286047001.6,N
1675609595.4,286047004.1,N
1675609615.2,286047004.0,N
1675609635.0,286047004.1,N
1675609635.9,286047004.1,N
1675609655.8,286047003.2,N
1675609675.6,286047003.9,N
1675609695.4,286047001.3,N
1675609715.3,286047003.1,N
1675609735.1,286047001.5,N
1675609736.0,286047001.5,N
1675609755.8,286047004.3,N
1675609775.7,286047001.6,N
1675609795.5,286047002.3,N
1675609815.3,286047004.9,N
1675609835.2,286047004.3,N
1675609855.9,286047003.5,N
1675609875.7,286047005.6,N
1675609895.6,286047004.8,N
1675609915.4,286047003.8,N
1675609935.2,286047002.6,N
1675609955.1,286046999.8,N
1675609956.0,286046999.8,N
1675609975.8,286047001.8,N
1675609995.6,286047003.1,N
1675610015.5,286047000.7,N
1675610035.3,286047002.4,N
1675610055.1,286047004.2,N
1675610075.9,286047000.8,N
1675610095.7,286047002.5,N
1675610115.5,286047001.2,N
1675610135.4,286047001.0,N
1675610155.2,286047000.9,N
1675610175.0,286047001.6,N
1675610175.9,286047001.6,N
1675610195.8,286047011.9,Y
1675610215.6,286046997.8,P
1675610235.4,286046996.9,N
1675610255.3,286046996.5,N
1675610275.1,286046997.6,N
1675610276.0,286046997.6,N
1675610295.8,286046995.4,N
1675610315.7,286046997.3,N
1675610335.5,286046996.2,N
1675610355.3,286046998.0,N
1675610375.2,286046997.8,N
1675610395.9,286046996.9,N
1675610415.7,286046995.0,Y
1675610435.6,286047001.2,P
1675610455.4,286046998.3,N
1675610475.2,286047000.6,N
1675610495.1,286047000.4,N
1675610496.0,286047000.4,N
1675610515.8,286047000.2,N
1675610535.6,286046997.7,N
1675610555.5,286046996.6,N
1675610575.3,286047000.9,N
1675610595.1,286047000.4,N
1675610615.9,286047001.2,N
1675610635.7,286046998.3,N
1675610655.5,286046999.2,N
1675610675.4,286046996.6,N
1675610695.2,286046997.1,N
1675610715.0,286047000.5,N
1675610715.9,286047000.5,N
1675610735.8,286046998.6,N
1675610755.6,286046996.6,N
1675610775.4,286046997.2,N
1675610795.3,286046997.6,N
1675610815.1,286046999.0,N
1675610835.8,286046998.8,N
1675610855.7,286046996.7,N
1675610875.5,286046997.0,N
1675610895.3,286046998.5,N
1675610915.2,286046998.8,N
1675610935.0,286047000.4,N
1675610935.9,286047000.4,N
1675610955.7,286046999.9,N
1675610975.6,286047002.5,N
1675610995.4,286047000.2,N
1675611015.2,286046998.7,N
1675611035.1,286046997.3,N
1675611036.0,286046997.3,N
1675611055.8,286046999.5,N
1675611075.6,286047000.6,N
1675611095.5,286046999.9,N
1675611115.3,286046998.1,N
1675611135.1,286047001.2,N
1675611155.9,286047002.8,N
1675611175.7,286047000.0,N
1675611195.6,286047000.8,N
1675611215.4,286047000.1,N
1675611235.2,286047002.5,N
1675611255.1,286047000.8,N
1675611256.0,286047000.8,N
1675611275.8,286047002.3,N
1675611295.6,286047001.5,N
1675611315.5,286047000.1,N
1675611335.3,286047000.3,N
1675611355.1,286046999.9,N
1675611375.9,286047002.3,N
1675611395.7,286046999.8,N
1675611415.5,286047000.9,N
1675611435.4,286047002.4,N
1675611455.2,286046998.7,N
1675611475.0,286046998.4,N
1675611475.9,286046998.4,N
1675611495.8,286047000.2,N
1675611515.6,286047000.1,N
1675611535.4,286047001.0,N
1675611555.3,286047002.3,N
1675611575.1,286047000.6,N
1675611595.8,286047000.3,N
1675611615.7,286047001.5,N
1675611635.5,286047000.4,N
1675611655.3,286047000.6,N
1675611675.2,286047003.6,N
1675611695.0,286046998.1,N
1675611695.9,286046998.1,N
1675611715.7,286047000.6,N
1675611735.6,286046998.7,N
1675611755.4,286047002.5,N
1675611775.2,286047000.2,N
1675611795.1,286047000.4,N
1675611796.0,286047000.4,N
1675611815.8,286047000.7,N
1675611835.6,286047000.6,N
1675611855.5,286046999.8,N
1675611875.3,286047001.6,N
1675611895.2,286046999.7,N
1675611915.9,286047002.9,N
1675611935.7,286047001.7,N
1675611955.6,286047006.0,Y
1675611975.4,286047003.0,P
1675611995.2,286047005.5,P
1675612015.1,286047005.2,N
1675612016.0,286047005.2,N
1675612035.8,286047005.3,N
1675612055.6,286047002.9,N
1675612075.5,286047003.9,N
1675612095.3,286047005.2,Y
1675612115.1,286047000.2,P
1675612135.9,286047002.0,N
1675612155.7,286047004.3,N
1675612175.5,286047003.5,N
1675612195.4,286047003.3,N
1675612215.2,286047001.7,N
1675612235.0,286047002.2,N
1675612235.9,286047002.2,N
1675612255.8,286047005.3,Y
1675612275.6,286047002.0,P
1675612295.4,286047001.6,P
1675612315.3,286047003.3,P
1675612335.1,286047003.2,Y
1675612355.8,286047002.6,P
1675612375.7,286047000.1,N
1675612395.5,286047000.0,N
1675612415.3,286047002.2,N
1675612435.2,286047002.3,N
1675612455.0,286047004.2,Y
1675612455.9,286047004.2,P
1675612475.8,286047003.3,N
1675612495.6,286047002.0,N
1675612515.4,286047004.4,Y
1675612535.3,286047001.0,P
1675612555.1,286047000.1,N
1675612556.0,286047000.1,N
1675612575.8,286047002.7,N
1675612595.7,286047000.3,N
1675612615.5,286047002.8,N
1675612635.3,286047002.0,N
1675612655.2,286047005.5,Y
1675612675.9,286047003.0,P
1675612695.7,286047005.6,P
1675612715.6,286047003.0,N
1675612735.4,286047003.3,N
1675612755.2,286047005.8,Y
1675612775.1,286047002.7,P
1675612776.0,286047002.7,P
1675612795.8,286046999.7,N
